Flag for Canada Weather past 2 weeks in Sanikiluaq, Nunavut, Canada

Now
54 °F

Mostly cloudy.


Feels Like: 54 °F
Forecast: 43 / 45 °F
Wind: 2 mph from North

Location: Kuujjuarapik

Current Time: Sep 5, 2015 at 4:50:26 AM

Latest Report: Sep 5, 2015 at 4:00 AM


Visibility: 9 mi

Pressure: 29.99 "Hg

Humidity: 100%

Dew point: 54 °F

Location of SanikiluaqLocation

Historic Weather in Sanikiluaq — Graph

°F

Sanikiluaq temperature yesterday

Maximum temperature yesterday: 73 °F (at 4:00 PM)
Minimum temperature yesterday: 55 °F (at 5:00 AM)
Average temperature yesterday: 62 °F

Past Weeks' High & Low Weather Summary

 TemperatureHumidityPressure
High81 °F (Aug 24, 1:00 PM)100% (Aug 23, 4:00 AM)30.16 "Hg (Aug 23, 4:00 AM)
Low37 °F (Sep 3, 1:58 AM)39% (Aug 24, 7:00 PM)29.39 "Hg (Aug 21, 6:45 AM)
Average54 °F86%29.81 "Hg
* Reported Aug 21 3:00 AM — Sep 5 3:58 AM, Sanikiluaq, Weather by CustomWeather, © 2015

Note: Actual official high and low records may vary slightly from our data, if they occured in-between our weather recording intervals... More about our weather records

Advertising

Sanikiluaq weather history for previous 24 hours

 ConditionsComfort  
Time TempWeatherWind HumidityBarometerVisibility
3:58 AM
Sat, Sep 5
54 °FMostly cloudy.No wind100%29.99 "Hg9 mi
3:00 AM55 °FOvercast.2 mph94%29.99 "Hg8 mi
2:57 AM54 °FOvercast.3 mph100%29.98 "Hg7 mi
2:04 AM54 °FRain. Fog.No wind100%30.00 "Hg5 mi
1:58 AM54 °FLight rain. Overcast.No wind100%30.00 "Hg9 mi
1:00 AM55 °FLight rain. Mostly cloudy.6 mph94%30.00 "Hg9 mi
12:00 AM57 °FPassing clouds.7 mph94%29.95 "Hg9 mi
11:00 PM
Fri, Sep 4
59 °FPartly cloudy.8 mph88%29.96 "Hg9 mi
10:00 PM61 °FPassing clouds.7 mph83%29.95 "Hg9 mi
9:00 PM59 °FMostly cloudy.2 mph88%29.93 "Hg9 mi
8:00 PM57 °FOvercast.8 mph94%29.93 "Hg9 mi
7:00 PM63 °FPassing clouds.3 mph88%29.93 "Hg9 mi
6:00 PM66 °FPassing clouds.7 mph83%29.93 "Hg9 mi
5:00 PM72 °FOvercast.6 mph78%29.89 "Hg9 mi
4:00 PM73 °FPassing clouds.6 mph74%29.92 "Hg9 mi
3:00 PM70 °FPassing clouds.3 mph83%29.93 "Hg9 mi
2:00 PM63 °FLight rain. Broken clouds.10 mph88%29.91 "Hg9 mi
1:00 PM63 °FMostly cloudy.5 mph77%29.96 "Hg9 mi
12:00 PM63 °FScattered clouds.3 mph83%29.93 "Hg9 mi
11:00 AM68 °FScattered clouds.3 mph69%29.91 "Hg9 mi
10:00 AM66 °FPartly sunny.3 mph68%29.91 "Hg9 mi
9:00 AM63 °FSunny.7 mph73%29.91 "Hg9 mi
8:00 AM57 °FSunny.8 mph77%29.90 "Hg9 mi
7:00 AM57 °FPassing clouds.9 mph77%29.90 "Hg9 mi
6:00 AM57 °FOvercast.8 mph72%29.90 "Hg9 mi
5:00 AM55 °FClear.8 mph77%29.89 "Hg9 mi
4:00 AM57 °FClear.10 mph72%29.90 "Hg9 mi
Weather by CustomWeather, © 2015

See weather overviewHow to use our weather pages